www.pogodaiklimat.ru

Погода и климат >> Архив погоды >> Индонезия >> Тауна


ПОГОДА в Тауне

  • Прогноз погоды в Тауне
  • Монитор погоды в Тауне

АРХИВ ПОГОДЫ в Тауне

Время (UTC), дата Ветер
(напр.,м/с)
 
Видим.   Явления Облачность Т
(С)
Тd
(С)
f
(%)
Тe
(С)
Тes
(С)
Комфортность P
(гПа)
Po
(гПа)
Тmin
(С)
Tmax
(С)
R
(мм)
R24
(мм)
S
(см)
06 19.06 ЮЗ 2 6000 м в посл. час дождь 9/5 500 м
[Cu med, cong Ac As Ci sp]
+27.8 +25.1 85 +40 +44 очень
душно
1007.8 1006.5 0.8
09 19.06 ЮЗ 2 8000 м {дождь} 8/4 540 м
[Cu med, cong Ac As Ci fib]
+27.0 +25.0 89 +39 +39 очень
душно
1007.5 1006.2 2
12 19.06 штиль 0 8000 м {дождь} 4/1 570 м
[Cu hum Ac trans Ci fib]
+25.6 +24.4 93 +36 +36 очень
душно
1009.0 1007.6 +31.4 2
15 19.06 ЮЗ 2 9000 м 3/3 570 м
[Cu med, cong Ci fib]
+25.2 +24.2 94 +35 +35 очень
душно
1009.1 1007.7
18 19.06 штиль 0 9000 м 4/3 570 м
[Cu hum Ci sp]
+24.6 +23.7 95 +33 +33 очень
душно
1007.9 1006.4
21 19.06 штиль 0 6000 м в посл. час дождь 8/6 540 м
[Cu med, cong Ci sp]
+24.9 +24.0 95 +34 +34 очень
душно
1008.2 1006.8 2
00 20.06 ЮЗ 2 7000 м слаб. дождь 8/5 540 м
[Cu med, cong Ac As Ci sp]
+28.4 +24.3 78 +40 +42 очень
душно
1009.9 1008.5 +24.2 0.1
03 20.06 штиль 0 7000 м осадки на расстоянии 9/5 540 м
[Cu med, cong Ac As Ci sp]
+28.0 +24.8 83 +40 +47 очень
душно
1009.6 1008.3 1
06 20.06 штиль 0 4000 м слаб. дождь 10/6 500 м
[Sc As op]
+26.4 +25.2 93 +38 +39 очень
душно
1008.4 1007.1 6
09 20.06 штиль 0 5000 м гроза, ливневой дождь 10/8 480 м
[Cb cap As op]
+24.0 +23.7 98 +33 +33 очень
душно
1009.6 1008.3 59
12 20.06 штиль 0 6000 м слаб. дождь 10/4 540 м
[Sc As op]
+23.6 +23.4 99 +32 +32 очень
душно
1010.6 1009.3 +30.4 12
15 20.06 штиль 0 8000 м {дождь} 10/4 540 м
[Sc Ac As]
+23.8 +23.5 98 +32 +32 очень
душно
1010.5 1009.2 2
18 20.06 штиль 0 8000 м {дождь} 6/3 540 м
[Cu med, cong Ac trans Ci sp]
+24.2 +23.6 96 +33 +33 очень
душно
1009.0 1007.6 2
21 20.06 штиль 0 7000 м осадки на расстоянии 8/4 540 м
[Cu med, cong Ac trans Ci sp]
+24.2 +23.9 98 +33 +33 очень
душно
1008.5 1007.2
00 21.06 З 3 8000 м осадки на расстоянии 8/3 540 м
[Cu hum Ac As Ci sp]
+28.6 +24.1 77 +40 +42 очень
душно
1009.9 1008.6 +23.2 80
03 21.06 З 2 8000 м 6/4 570 м
[Cu med, cong Ac trans Ci fib]
+30.4 +24.4 70 +42 +51 опасность
перегрева
1009.0 1007.7
06 21.06 ЮЗ 5 8000 м 8/5 540 м
[Cu med, cong Ac trans Ci fib]
+31.2 +23.9 65 +43 +45 опасность
перегрева
1007.6 1006.3
09 21.06 штиль 0 8000 м в посл. час дождь 8/5 540 м
[Cu med, cong Ac trans Ci fib]
+27.2 +25.9 93 +41 +41 опасность
перегрева
1008.0 1006.7 4
12 21.06 штиль 0 8000 м {дождь} 3/1 570 м
[Cu hum Ac trans]
+25.6 +24.4 93 +36 +36 очень
душно
1009.8 1008.4 +32.2 4
15 21.06 штиль 0 9000 м 3/1 600 м
[Cu hum Ci sp]
+24.4 +23.5 95 +33 +33 очень
душно
1009.6 1008.3
18 21.06 штиль 0 9000 м 4/3 570 м
[Cu hum Ci sp]
+24.0 +23.4 96 +32 +32 очень
душно
1007.7 1006.4
00 22.06 ЮВ 2 9000 м 1/1 570 м
[Cu hum]
+30.2 +24.8 73 +43 +48 опасность
перегрева
1008.6 1007.3 +23.8 4
03 22.06 В 3 9000 м 5/5 540 м
[Cu med, cong]
+30.6 +24.0 68 +42 +50 опасность
перегрева
1008.5 1007.1
06 22.06 В 2 9000 м 5/5 540 м
[Cu med, cong Ac trans Ci fib]
+30.8 +24.2 68 +43 +48 опасность
перегрева
1006.5 1005.1
09 22.06 З 2 9000 м 6/3 570 м
[Cu hum Ac trans Ci sp]
+29.4 +25.4 79 +43 +43 опасность
перегрева
1007.1 1005.8
12 22.06 Ю 2 9000 м 5/3 570 м
[Cu hum Ac trans Ci sp]
+26.4 +24.3 88 +37 +37 очень
душно
1008.7 1007.4 +32.0
15 22.06 штиль 0 9000 м 5/3 570 м
[Cu hum Ac trans Ci sp]
+25.4 +23.4 89 +34 +34 очень
душно
1008.7 1007.4
18 22.06 ЮЗ 2 9000 м 4/1 570 м
[Cu hum Ac trans Ci sp]
+25.2 +22.5 85 +33 +33 очень
душно
1007.7 1006.4
21 22.06 Ю 2 9000 м 3/1 570 м
[Cu hum Ac trans Ci fib]
+26.2 +23.6 86 +36 +36 очень
душно
1007.8 1006.5
00 23.06 Ю 3 9000 м 3/1 570 м
[Cu hum Ci fib]
+30.3 +23.6 67 +41 +45 опасность
перегрева
1009.3 1008.0 +24.2
03 23.06 ЮЗ 4 9000 м 3/3 570 м
[Cu med, cong Ci fib]
+31.7 +24.0 64 +44 +52 опасность
перегрева
1009.0 1007.7
06 23.06 Ю 3 9000 м 1/1 570 м
[Cu hum Ci fib]
+31.8 +23.4 61 +43 +51 опасность
перегрева
1007.2 1005.9
09 23.06 ЮЗ 2 9000 м 3/1 570 м
[Cu hum Ci sp]
+28.7 +23.9 75 +40 +40 очень
душно
1008.1 1006.8
12 23.06 штиль 0 9000 м 3/1 570 м
[Cu hum Ci sp]
+26.6 +24.2 87 +37 +37 очень
душно
1010.0 1008.6 +32.8
15 23.06 ЮЗ 3 9000 м 1/1 570 м
[Cu hum Ci fib]
+26.6 +23.0 81 +36 +36 очень
душно
1010.3 1008.9
18 23.06 штиль 0 9000 м 4/1 570 м
[Cu hum Ac trans Ci fib]
+26.0 +23.6 87 +35 +35 очень
душно
1009.5 1008.1
21 23.06 штиль 0 9000 м 3/1 570 м
[Cu hum Ci sp]
+25.1 +23.5 91 +34 +34 очень
душно
1010.1 1008.7
00 24.06 ЮЗ 2 9000 м 6/1 600 м
[Cu hum Ci sp]
+28.8 +24.5 78 +41 +45 опасность
перегрева
1011.6 1010.3 +24.6
03 24.06 ЮЗ 5 9000 м 8/3 570 м
[Cu med, cong Ac trans Ci sp]
+32.0 +22.3 57 +41 +46 опасность
перегрева
1010.9 1009.5
06 24.06 ЮЗ 5 9000 м 4/1 570 м
[Cu hum Ac trans Ci sp]
+31.8 +23.1 60 +42 +46 опасность
перегрева
1009.2 1007.9
09 24.06 ЮЗ 2 9000 м 4/1 570 м
[Cu hum Ac trans Ci sp]
+30.0 +22.7 65 +40 +40 очень
душно
1009.3 1008.0
12 24.06 Ю 2 9000 м 3/1 570 м
[Cu hum Ci sp]
+26.2 +23.8 87 +36 +36 очень
душно
1012.1 1010.7
15 24.06 штиль 0 9000 м 1/1 570 м
[Cu hum Ci fib]
+24.6 +23.7 95 +33 +33 очень
душно
1012.0 1010.7
18 24.06 штиль 0 9000 м 3/1 570 м
[Cu hum Ac trans Ci fib]
+24.4 +23.2 93 +33 +33 очень
душно
1010.7 1009.4
21 24.06 штиль 0 9000 м 3/1 570 м
[Cu hum Ac trans Ci fib]
+23.2 +22.3 95 +32 +32 очень
душно
1010.3 1009.0
00 25.06 Ю 3 9000 м 5/1 570 м
[Cu hum Ac trans Ci sp]
+29.2 +24.3 75 +41 +44 опасность
перегрева
1011.6 1010.3 +23.0
03 25.06 СВ 2 9000 м 5/3 570 м
[Cu hum Ac trans Ci sp]
+30.8 +24.5 69 +43 +54 опасность
перегрева
1011.2 1009.9
06 25.06 С 3 8000 м 6/5 540 м
[Cu med, cong Ac trans Ci sp]
+30.0 +25.4 76 +44 +48 опасность
перегрева
1009.8 1008.4
09 25.06 Ю 2 8000 м 4/4 540 м
[Cu med, cong Ac trans Ci sp]
+29.2 +24.0 74 +41 +41 опасность
перегрева
1008.7 1006.4
12 25.06 штиль 0 9000 м 3/3 570 м
[Cu hum Ac trans Ci fib]
+26.4 +24.3 88 +37 +37 очень
душно
1011.3 1009.9 +31.4
15 25.06 штиль 0 9000 м 4/3 570 м
[Cu hum Ci sp]
+25.0 +23.8 93 +34 +34 очень
душно
1011.7 1010.4
18 25.06 штиль 0 9000 м 1/1 600 м
[Cu hum]
+24.4 +23.2 93 +33 +33 очень
душно
1010.2 1008.9
21 25.06 ЮЗ 2 9000 м 3/1 600 м
[Cu hum Ci sp]
+25.8 +24.3 91 +36 +36 очень
душно
1009.7 1008.4
00 26.06 Ю 3 9000 м 1/1 570 м
[Cu hum Ci fib]
+30.0 +25.4 76 +44 +48 опасность
перегрева
1010.7 1009.4 +22.8
03 26.06 Ю 3 9000 м 6/4 570 м
[Cu hum Ci sp]
+31.2 +24.0 66 +43 +51 опасность
перегрева
1009.9 1008.6

 

Местоположение метеостанции Тауна (Индонезия): широта -3.58 долгота 125.47 высота над уровнем моря 38 м.

В архиве по умолчанию представлена погода в Тауне за последнюю неделю. Архивные данные за месяц целиком и за предыдущие месяцы, начиная с января 2011 года, Вы можете получить, выбрав интересующий диапазон дат из раскрывающегося списка и нажав кнопку "Ввод!".


*Определитесь, кто Вы:
робот инопланетянин человек

Внимание! Время в таблицах - всемирное. Для получения местного времени необходимо прибавить поправку, которая равна 8 ч.

Смотрите также архив погоды в соседних городах и на ближайших метеорологических станциях:

Погода на Санане (Индонезия) (177 км)
Погода в Намлеа (Индонезия) (182 км)
Погода в Амбоне (Индонезия) (290 км)
Погода в Кендари (Индонезия) (342 км)
Погода в Амахаи (Индонезия) (379 км)
Погода в Бау-Бау (Индонезия) (380 км)
Погода в Лабухе (Индонезия) (398 км)
Погода в Лувуке (Индонезия) (422 км)
Погода в Колаке (Индонезия) (444 км)
Погода в Неира (Индонезия) (503 км)

Пояснения к столбцам:

Ветер - указаны скорость ветра в м/с - средняя за 10 мин, порывы в срок и между сроками (в фигурных скобках) и направление, откуда дует ветер: С - северный, СВ - северо-восточный, В - восточный, ЮВ - юго-восточный, Ю - южный, ЮЗ - юго-западный, З - западный, СЗ - северо-западный.
Видимость - горизонтальная дальность видимости в метрах или километрах. При видимости от 1 до 10 км при отсутствии осадков обычно наблюдается дымка, при ухудшении видимости до 1 км и менее - туман. В сухую погоду видимость может ухудшаться дымом, пылью или мглою.
Явления - указаны атмосферные явления, наблюдавшиеся в срок или в последний час перед сроком; фигурными скобками обозначены явления, наблюдавшиеся между сроками (за 1-3 часа до срока); квадратными скобками обозначены град или гололедные отложения с указанием их диаметра в мм.
Облачность - указаны через наклонную черту общая и нижняя облачность в баллах и высота нижней границы облаков в метрах; квадратными скобками обозначены формы облаков: Ci - перистые, Cs - перисто-слоистые, Cc - перисто-кучевые, Ac - высококучевые, As - высокослоистые, Sc - слоисто-кучевые, Ns - слоисто-дождевые, Cu - кучевые, Cb - кучево-дождевые. Подробнее классификацию облаков см. в Атласе облаков (PDF).
T - Температура воздуха - температура, измеренная на высоте 2 м над землей.
Td - Температура точки росы - температура, при понижении до которой содержащийся в воздухе водяной пар достигнет насыщения.
f - Относительная влажность воздуха - влажноcть воздуха, измеренная на высоте 2 м над землей.
Te - Эффективная температура - температура, которую ощущает одетый по сезону человек в тени. Характеристика душности погоды. При расчете учитывается влияние влажности воздуха и скорости ветра на теплоощущения человека.
Tes - Эффективная температура на солнце - температура, которую ощущает человек, с поправкой на солнечный нагрев. Характеристика знойности погоды. Зависит от высоты солнца над горизонтом, облачности и скорости ветра. Ночью, в пасмурную погоду, а также при ветре 12 м/с и более поправка равна нулю.
P - Атмосферное давление - приведенное к уровню моря атмосферное давление.
Po - Атмосферное давление - измеренное на уровне метеостанции атмосферное давление.
Tmin - Минимальная температура - минимум температуры воздуха на высоте 2 м над землей.
Tmax - Максимальная температура - максимум температуры воздуха на высоте 2 м над землей.
R - Количество осадков - Количество выпавших осадков за период времени, мм. При наведении курсора мыши на число - период времени, за который выпало указанное количество осадков.
R24 - Количество осадков - Количество выпавших осадков за 24 часа, мм.
S - Снежный покров - Высота снежного покрова, см. При наведении курсора мыши на число - состояние снежного покрова и степень покрытия местности в баллах.